Location: Miles
(41.4492°N, 81.6087°W)
Time: 23:04:05
(UTC+00:00)

Vanguard 2 Rocket - Pass Details

Date: 26 September 2024
Orbit: 553 x 3298 km, 32.9° (Epoch: 12 October)

Event Time Altitude Azimuth Distance (km) Brightness Sun altitude
Rises 10:40:04 0° 268° (W) 5,188 - -8.0°
Exits shadow 10:43:17 - 257° (WSW) 4,749 9.9 -7.4°
Reaches altitude 10° 10:44:25 10° 252° (WSW) 4,638 9.9 -7.2°
Maximum altitude 10:53:14 20° 212° (SSW) 4,578 10.2 -5.6°
Drops below altitude 10° 11:04:31 10° 173° (S) 6,023 11.2 -3.5°
Sets 11:11:38 0° 160° (SSE) 7,235 11.8 -2.1°
